Wetbulb
61.27 59.17 59.72 56.57 47.88 46.78 42.77 44.65 49.34 49.21 50.70 55.99 52.65 51.51 51.47 52.61 50.93 49.06 60.83 63.73 64.65 67.71 69.84 69.62 69.44 69.49 69.02 68.61 68.04 68.03 67.56 67.35 67.47 67.13 67.87 68.54 67.91 67.23 66.96 66.99 67.49 67.37 66.89 66.08 65.65 65.74 66.17 65.93 65.90
59.30 59.35 57.27 52.55 44.81 39.61 40.68 46.18 46.55 49.43 52.00 54.77 55.24 56.03 55.01 53.51 58.59 58.26 60.09 63.58 65.79 68.80 69.27 68.86 68.21 69.02 68.82 68.13 67.38 67.71 68.04 67.30 67.15 67.48 67.16 67.51 67.29 66.76 66.56 67.07 67.57 67.01 66.11 65.88 65.92 66.21 66.06 66.08 66.06
56.86 59.71 52.55 49.12 44.98 40.43 40.56 44.59 46.61 49.81 51.12 54.40 52.93 57.41 56.73 56.24 58.84 59.41 62.14 64.00 67.06 68.34 68.11 67.64 68.03 68.93 68.40 67.74 67.50 67.44 67.56 67.64 66.55 66.59 67.04 66.39 66.55 66.85 66.38 67.22 66.95 66.39 65.80 65.59 66.10 65.96 66.22 66.08 66.75
57.47 55.83 52.04 45.80 43.43 46.74 44.68 47.59 50.67 49.45 52.24 54.94 55.95 54.26 58.32 60.67 60.35 61.03 62.53 64.83 67.26 67.60 67.39 67.24 68.26 68.63 68.17 67.62 67.47 67.18 67.24 67.08 66.51 67.65 67.08 67.42 66.58 67.47 67.35 67.06 66.88 65.74 65.98 65.86 65.62 66.27 66.49 66.65 66.70
55.47 51.81 46.06 43.31 43.89 47.40 49.19 50.43 49.99 49.29 49.89 50.63 55.09 53.36 55.87 60.44 61.09 62.86 63.89 65.34 66.50 67.00 67.23 67.29 67.83 68.05 67.90 67.77 67.63 67.38 67.40 66.41 67.71 67.91 67.52 67.52 68.22 68.21 67.03 66.62 65.25 66.68 67.12 66.69 66.08 66.34 66.07 66.10 66.44
50.98 49.83 42.19 40.18 43.37 47.49 49.47 51.31 50.36 49.56 50.39 50.89 52.14 53.90 56.23 60.91 61.03 63.02 64.58 65.29 67.00 66.55 67.05 67.29 65.83 66.85 67.16 67.17 67.46 66.77 66.50 67.12 67.06 67.88 67.47 68.07 67.93 67.40 66.54 65.66 67.00 67.65 67.27 66.47 66.48 66.12 65.47 65.83 65.53
48.34 46.05 42.03 42.49 42.78 45.21 48.50 51.66 48.93 49.04 49.90 50.69 54.05 52.79 56.47 59.28 61.27 63.72 64.71 65.41 66.73 66.75 66.91 67.21 67.42 66.66 64.99 65.70 66.03 65.72 66.25 66.67 66.72 67.32 67.00 67.41 66.15 65.82 66.14 66.52 67.67 68.01 67.28 66.74 66.26 65.21 65.42 65.62 65.11
49.41 46.86 42.99 42.66 42.15 43.61 45.70 47.39 50.25 49.85 49.96 54.89 57.86 52.89 54.19 58.69 61.86 64.15 64.72 65.34 66.10 66.45 66.81 67.03 67.39 67.27 66.83 66.18 63.69 64.04 64.40 64.66 66.01 65.90 65.44 63.76 63.18 64.06 65.40 64.73 66.69 67.63 67.18 65.83 64.55 64.95 64.64 64.40 64.32
51.75 44.46 40.35 42.12 43.12 44.16 41.90 41.31 48.89 49.24 49.92 51.37 54.37 57.45 58.76 59.12 61.95 62.27 62.22 63.11 64.08 65.46 66.22 66.95 66.72 66.73 66.33 65.89 63.79 62.74 63.07 63.06 63.68 63.64 62.31 60.53 62.73 64.19 63.58 62.68 65.36 66.98 66.50 64.54 64.42 64.66 63.51 61.80 60.86
44.87 42.21 40.59 40.05 39.92 37.69 38.70 41.06 41.94 44.71 44.96 46.31 49.37 55.23 55.80 58.10 60.60 60.67 59.58 60.17 61.55 62.56 64.48 66.03 66.39 66.35 66.10 65.76 65.20 64.96 65.28 64.68 63.96 64.35 63.32 62.49 62.81 64.09 62.93 61.72 62.82 64.52 64.23 64.01 64.67 62.85 60.09 58.54 59.04
37.95 39.18 37.82 39.42 39.22 38.46 37.50 38.04 42.12 40.16 40.52 46.31 45.88 46.81 49.98 55.88 56.65 59.48 60.22 60.88 61.12 62.61 63.84 65.17 65.81 66.37 66.35 66.04 65.47 64.52 64.29 64.15 63.53 63.55 62.99 62.57 62.29 62.88 63.35 64.49 65.01 64.96 61.29 63.34 62.32 59.41 58.19 57.28 57.12
32.36 37.26 37.50 37.97 38.80 37.02 35.62 38.55 38.11 40.55 39.97 44.39 44.69 44.87 46.38 48.59 52.19 56.55 58.36 60.94 61.39 61.71 63.05 64.48 65.29 65.83 66.05 66.50 65.37 64.67 64.17 63.36 62.62 62.53 62.26 62.03 61.99 62.49 62.46 63.29 63.51 62.67 61.01 60.44 58.16 57.17 55.82 54.84 54.19
33.77 34.90 36.74 37.46 37.15 36.43 36.98 35.38 36.04 36.76 40.10 41.17 42.46 43.01 42.31 43.05 46.57 55.50 59.00 59.60 61.46 61.10 62.13 63.30 64.56 64.93 65.75 65.87 65.70 64.93 64.24 63.61 62.21 62.20 62.22 62.49 61.79 61.31 61.39 62.02 61.82 61.14 57.31 57.77 56.03 55.34 53.89 52.70 51.63
34.89 35.39 35.13 35.91 35.45 34.64 34.30 34.66 35.28 36.59 39.74 39.62 40.74 40.86 41.59 41.93 43.32 46.72 55.18 57.82 58.69 61.22 62.02 62.81 63.58 64.36 64.78 65.35 65.41 64.78 64.88 63.66 62.08 61.92 61.90 61.76 61.45 60.60 60.33 60.67 60.86 58.22 55.99 55.23 54.88 54.03 52.58 50.82 49.36
36.60 30.35 30.25 32.16 33.00 33.11 35.26 30.67 32.13 37.21 37.48 37.83 38.96 39.81 40.41 41.35 43.16 43.49 47.07 55.36 59.53 60.77 61.98 62.38 62.93 63.78 63.80 64.18 65.13 64.88 64.41 63.83 61.90 61.30 62.26 61.60 61.20 59.79 59.45 59.75 59.79 57.16 54.37 52.71 52.62 51.28 49.90 47.83 46.06
28.18 27.62 24.04 30.63 32.50 34.16 34.13 25.56 33.67 38.01 36.64 36.97 37.81 38.90 39.83 39.94 41.69 43.45 44.76 46.86 56.48 60.14 61.66 62.27 62.98 62.78 63.17 63.36 63.99 64.67 64.79 63.64 62.47 61.56 61.65 61.28 60.74 59.68 59.28 58.52 59.15 54.78 52.49 51.31 51.08 50.02 47.71 44.96 42.96
27.19 22.31 23.91 26.51 32.73 32.09 32.07 27.91 34.21 37.93 36.76 35.85 36.85 38.06 38.84 39.80 40.84 42.36 43.58 44.54 47.09 57.10 61.39 62.06 62.82 62.64 62.71 63.00 63.06 63.90 64.57 63.40 63.16 62.06 61.13 61.03 60.07 59.07 58.78 58.23 57.43 54.44 51.04 50.17 49.88 48.94 47.79 42.10 40.31
22.97 23.43 25.01 24.43 29.04 30.97 29.48 28.76 33.26 35.92 35.65 35.20 35.75 35.90 36.41 37.81 39.69 42.73 43.07 43.58 44.57 49.64 59.85 62.26 62.65 63.09 63.22 62.84 62.50 62.69 63.31 63.31 63.08 62.01 61.48 60.50 60.05 59.05 58.84 58.00 56.60 53.68 50.17 48.63 48.89 47.69 45.38 42.63 39.75
27.20 25.74 24.52 27.53 31.17 28.80 27.73 28.03 30.96 34.29 34.49 33.26 34.04 36.65 38.05 39.40 42.13 42.54 43.43 44.07 44.68 45.80 50.77 59.56 61.70 62.65 63.21 62.46 61.22 60.83 60.13 61.94 61.93 62.15 61.59 60.76 60.06 58.63 58.31 57.58 55.22 54.12 50.40 47.84 47.41 46.29 42.31 40.83 38.12
28.01 26.07 24.63 28.12 30.17 28.99 27.76 26.96 31.27 32.93 32.63 34.30 36.19 37.77 38.57 39.43 40.28 41.06 41.80 42.66 42.77 43.30 44.85 45.95 57.54 61.99 62.82 63.07 62.70 61.85 60.99 61.17 61.63 61.68 61.01 60.49 59.80 58.80 57.94 56.80 54.70 53.47 50.40 46.74 46.77 45.16 41.89 39.86 40.25
27.61 25.99 25.44 25.10 27.88 28.98 27.87 25.60 27.13 32.05 32.86 36.44 39.01 39.59 39.91 39.47 38.98 39.45 39.90 40.83 41.76 41.84 42.87 44.30 45.38 49.28 62.20 63.01 62.94 62.01 59.71 55.60 56.27 59.18 58.68 58.29 58.94 58.43 57.60 56.67 53.30 52.29 48.63 45.66 45.73 45.53 43.87 39.58 40.44
23.85 28.76 26.95 25.71 24.55 17.52 28.14 15.59 25.66 29.02 30.05 35.78 37.50 37.23 36.46 37.89 39.56 39.16 38.93 39.40 40.40 41.66 43.08 42.92 43.94 45.55 54.58 62.44 62.04 57.81 57.13 55.71 57.83 57.00 57.42 57.01 57.74 57.82 57.27 55.39 51.99 51.42 48.71 46.84 45.57 45.97 44.68 42.87 39.43
25.82 28.23 26.65 26.33 24.00 24.08 23.97 21.27 24.09 29.15 29.45 34.19 34.26 35.97 36.91 37.90 37.71 37.90 37.91 38.91 40.15 41.60 41.41 42.61 42.56 44.00 48.99 59.68 61.75 58.77 58.98 59.18 58.14 54.48 51.37 50.71 52.06 55.07 53.21 51.70 51.05 50.59 48.46 46.46 45.35 43.58 42.77 42.89 39.63
29.34 27.15 26.45 25.58 24.97 15.27 20.80 22.50 22.37 25.77 31.50 32.66 34.26 35.67 36.20 36.64 37.58 38.00 38.18 38.54 38.92 40.31 40.73 41.34 41.44 42.46 46.34 56.84 60.29 58.86 59.11 56.56 49.84 49.33 48.43 46.85 48.17 48.62 49.47 48.76 48.60 47.74 45.95 44.19 43.48 43.69 42.24 40.78 40.79
27.37 23.31 8.63 8.29 7.39 10.48 23.77 21.59 23.94 30.58 34.56 33.25 33.45 35.79 35.58 37.34 35.98 36.01 35.68 35.91 36.69 37.39 38.55 40.06 40.91 40.89 43.86 46.71 58.67 58.81 59.07 51.89 50.85 49.78 48.98 45.68 44.20 44.02 45.79 47.09 45.92 45.30 44.79 43.66 42.74 41.83 40.51 40.54 40.07
24.48 23.42 8.95 1.82 6.90 14.52 25.08 18.07 24.58 34.29 35.46 35.95 37.23 37.17 36.82 36.05 35.41 34.43 34.08 34.12 34.56 35.75 37.35 38.75 39.51 39.89 42.16 45.69 52.63 57.89 58.16 52.26 51.93 50.46 49.41 47.59 46.41 44.85 43.69 44.06 43.19 41.84 41.17 40.71 40.55 39.97 39.92 39.21 37.34
21.39 14.78 25.69 21.76 13.30 16.14 20.71 24.89 29.91 33.84 33.40 35.17 35.57 34.67 33.77 34.46 33.47 32.13 32.43 32.95 33.49 35.06 36.27 37.78 38.78 39.62 40.87 43.14 45.92 56.99 54.42 52.10 50.48 50.35 48.45 46.69 44.20 41.36 41.23 40.02 39.50 39.25 39.14 39.14 38.63 37.67 35.99 35.49 34.64
24.39 27.49 15.51 13.05 7.39 7.37 16.98 20.77 22.50 28.39 30.87 33.16 32.24 31.66 33.40 31.23 30.72 30.65 30.98 31.79 33.03 35.22 36.50 37.82 38.98 39.35 40.75 42.86 44.24 55.55 51.63 50.07 48.06 45.63 41.47 39.67 39.06 38.55 37.96 37.69 37.22 37.11 37.15 37.30 36.54 34.52 33.87 32.85 31.40
17.17 14.08 18.06 23.30 21.14 13.06 13.46 19.21 29.27 30.66 32.30 31.08 30.83 32.38 29.53 28.95 29.08 29.31 30.06 31.38 33.81 35.20 36.55 37.93 39.11 39.77 40.64 42.73 44.24 47.97 44.00 41.53 39.50 37.70 36.93 36.38 36.22 36.03 35.27 34.91 34.67 34.39 34.07 34.48 33.62 32.66 31.87 29.33 27.69
23.70 19.48 18.98 10.99 14.47 19.61 18.55 17.59 32.01 33.58 33.91 31.56 30.41 29.04 28.43 28.29 28.18 29.01 29.76 31.81 33.40 34.97 36.25 37.02 38.61 40.30 41.69 44.54 43.22 40.48 38.80 37.16 35.01 33.52 33.71 34.45 33.24 33.75 33.08 33.00 32.72 33.35 33.69 33.59 32.37 30.38 28.60 26.78 25.55
MSLP
1013.66 1013.45 1013.33 1013.14 1014.28 1014.36 1014.31 1013.82 1013.26 1012.27 1011.43 1010.56 1010.41 1010.43 1010.18 1010.04 1010.36 1011.13 1010.88 1011.15 1011.32 1011.35 1011.86 1012.15 1012.82 1013.13 1013.70 1014.04 1014.56 1015.07 1015.42 1015.62 1015.95 1016.09 1016.46 1016.88 1017.08 1017.29 1017.56 1017.74 1018.01 1018.24 1018.55 1018.86 1019.10 1019.24 1019.47 1019.71 1019.85
1013.56 1013.36 1013.12 1013.65 1014.37 1014.62 1014.03 1013.41 1012.79 1012.06 1011.42 1010.69 1010.27 1010.35 1010.23 1009.80 1010.03 1010.43 1010.81 1011.05 1011.32 1011.38 1011.72 1012.11 1012.48 1013.13 1013.67 1014.13 1014.57 1014.85 1015.32 1015.60 1015.93 1016.25 1016.54 1016.84 1017.11 1017.31 1017.61 1017.87 1018.08 1018.40 1018.72 1019.05 1019.18 1019.37 1019.66 1019.81 1019.90
1013.49 1013.25 1013.56 1014.11 1014.31 1014.14 1013.75 1012.73 1012.27 1011.76 1011.12 1010.79 1010.51 1010.43 1010.18 1009.70 1009.87 1009.96 1010.13 1010.63 1011.23 1011.67 1011.77 1012.26 1012.51 1012.95 1013.21 1013.99 1014.53 1014.96 1015.23 1015.54 1015.87 1016.26 1016.57 1016.85 1017.10 1017.55 1017.85 1018.03 1018.19 1018.50 1018.78 1019.07 1019.30 1019.54 1019.76 1019.89 1019.92
1013.40 1013.43 1014.59 1014.85 1014.01 1013.55 1012.70 1011.91 1011.75 1011.44 1010.90 1010.74 1010.78 1010.62 1010.25 1009.79 1009.75 1009.74 1010.02 1010.51 1010.98 1011.65 1011.90 1012.31 1012.75 1012.88 1013.32 1013.75 1014.41 1014.67 1015.08 1015.52 1015.74 1016.17 1016.49 1016.87 1017.25 1017.53 1017.81 1018.06 1018.32 1018.60 1018.90 1019.10 1019.33 1019.67 1019.88 1019.91 1020.00
1014.15 1014.80 1015.08 1015.01 1014.03 1013.07 1012.14 1011.52 1011.60 1011.45 1011.20 1010.73 1010.75 1010.37 1010.22 1010.19 1010.21 1010.19 1010.18 1010.47 1010.66 1011.39 1011.70 1012.27 1012.56 1013.05 1013.33 1013.70 1014.22 1014.47 1014.86 1015.35 1015.91 1016.21 1016.60 1016.89 1017.21 1017.58 1017.87 1018.17 1018.39 1018.67 1018.88 1019.17 1019.51 1019.80 1020.03 1020.08 1020.19
1014.84 1015.15 1015.41 1014.74 1013.57 1013.06 1012.13 1011.62 1011.69 1011.35 1011.04 1010.66 1010.75 1010.42 1009.83 1009.89 1010.25 1010.78 1010.53 1010.55 1010.90 1011.18 1011.62 1012.10 1012.49 1013.10 1013.42 1013.74 1013.94 1014.67 1014.79 1015.16 1015.60 1016.14 1016.62 1016.96 1017.33 1017.73 1018.14 1018.37 1018.56 1018.66 1018.88 1019.30 1019.67 1019.98 1020.22 1020.31 1020.50
1015.32 1015.56 1015.04 1014.67 1014.16 1013.49 1012.30 1011.78 1011.92 1011.84 1011.33 1011.08 1010.97 1010.66 1010.19 1010.54 1010.84 1011.13 1010.94 1011.07 1010.86 1011.07 1011.70 1012.08 1012.41 1013.05 1013.44 1013.84 1014.23 1014.42 1014.75 1015.35 1015.68 1015.93 1016.36 1016.93 1017.37 1017.71 1018.19 1018.33 1018.56 1018.79 1019.08 1019.44 1019.80 1020.17 1020.41 1020.61 1020.88
1015.50 1015.67 1015.63 1015.37 1014.93 1014.20 1013.72 1012.97 1012.62 1012.33 1011.82 1011.19 1011.04 1011.14 1010.94 1010.95 1010.95 1011.35 1011.78 1011.74 1011.54 1011.31 1011.71 1011.88 1012.42 1012.86 1013.40 1013.72 1014.35 1014.70 1014.73 1015.19 1015.80 1016.14 1016.35 1016.75 1017.18 1017.70 1017.98 1018.32 1018.57 1018.85 1019.28 1019.82 1020.03 1020.23 1020.52 1020.91 1021.23
1015.64 1016.27 1016.23 1016.16 1015.78 1015.03 1014.76 1014.58 1013.55 1013.23 1012.63 1012.04 1011.49 1011.53 1011.57 1011.43 1011.48 1011.51 1011.84 1011.99 1011.64 1011.53 1011.58 1011.72 1012.12 1012.68 1013.14 1013.72 1014.06 1014.59 1015.05 1015.20 1015.67 1016.18 1016.60 1016.82 1017.21 1017.45 1017.87 1018.21 1018.52 1018.77 1019.28 1019.90 1020.17 1020.56 1020.85 1021.27 1021.64
1016.88 1017.27 1017.15 1016.87 1016.52 1016.31 1016.14 1015.68 1015.08 1014.26 1013.43 1012.70 1012.07 1011.56 1011.58 1011.67 1011.89 1011.81 1011.69 1011.58 1011.59 1011.19 1011.27 1011.44 1011.88 1012.29 1012.85 1013.38 1013.92 1014.39 1014.68 1015.28 1015.51 1015.94 1016.78 1016.89 1017.28 1017.47 1017.87 1018.12 1018.65 1018.92 1019.36 1019.86 1020.23 1020.77 1021.32 1021.48 1021.74
1018.22 1018.17 1018.13 1017.54 1017.44 1017.39 1016.72 1016.03 1015.41 1014.88 1013.92 1013.23 1012.79 1012.20 1012.04 1012.03 1012.01 1011.94 1011.63 1011.31 1011.35 1011.62 1011.55 1011.39 1011.74 1011.90 1012.48 1012.99 1013.53 1014.08 1014.51 1014.84 1015.49 1016.01 1016.25 1017.05 1017.48 1017.83 1017.87 1018.44 1018.70 1019.14 1019.47 1019.89 1020.61 1021.29 1021.59 1021.88 1022.19
1018.88 1018.61 1018.49 1018.16 1017.86 1017.71 1017.13 1016.52 1015.88 1015.21 1014.40 1013.85 1013.54 1013.12 1012.59 1012.10 1011.57 1011.35 1011.06 1010.86 1011.20 1011.22 1011.26 1011.44 1011.62 1011.90 1012.00 1012.46 1013.09 1013.51 1014.02 1014.58 1014.93 1015.74 1016.14 1016.77 1017.57 1018.01 1018.12 1018.32 1018.93 1019.40 1019.94 1020.33 1020.89 1021.45 1021.99 1022.43 1022.83
1019.38 1019.20 1018.83 1018.56 1018.31 1017.97 1017.38 1017.08 1016.56 1015.64 1014.78 1014.38 1013.88 1013.35 1012.87 1012.26 1011.76 1011.14 1010.57 1010.52 1010.51 1010.55 1010.70 1011.03 1011.48 1011.62 1011.68 1012.13 1012.49 1013.02 1013.50 1014.03 1014.54 1015.12 1015.93 1016.25 1017.00 1017.74 1018.27 1018.69 1018.95 1019.36 1019.90 1020.56 1021.11 1021.79 1022.36 1022.92 1023.36
1020.02 1019.79 1019.32 1018.84 1018.48 1018.06 1017.86 1017.09 1016.74 1015.48 1014.74 1014.42 1013.70 1013.10 1012.70 1012.22 1011.70 1011.02 1010.58 1010.03 1009.88 1009.91 1010.11 1010.41 1010.85 1011.25 1011.36 1011.54 1011.92 1012.47 1012.93 1013.40 1014.11 1014.60 1015.26 1015.69 1016.49 1017.17 1017.78 1018.40 1018.92 1019.42 1019.96 1020.68 1021.29 1021.81 1022.57 1023.25 1023.76
1020.22 1020.20 1019.46 1019.05 1018.76 1018.61 1018.00 1016.90 1016.60 1015.32 1014.94 1014.37 1013.79 1013.08 1012.63 1012.18 1011.58 1010.96 1010.37 1009.99 1009.55 1009.17 1009.38 1009.54 1010.07 1010.64 1010.84 1011.04 1011.40 1011.85 1012.36 1012.95 1013.34 1014.01 1014.57 1015.17 1015.76 1016.70 1017.48 1018.22 1018.70 1019.32 1020.00 1020.69 1021.43 1022.29 1022.93 1023.63 1024.38
1020.79 1021.03 1020.92 1019.26 1019.12 1018.65 1018.49 1017.17 1016.18 1015.16 1014.63 1013.85 1013.50 1012.98 1012.30 1011.88 1011.34 1010.76 1010.21 1009.77 1009.25 1008.86 1008.66 1008.70 1008.99 1009.69 1010.21 1010.38 1010.78 1011.30 1011.73 1012.41 1012.92 1013.34 1014.06 1014.66 1015.38 1016.10 1016.95 1017.59 1018.35 1019.02 1019.82 1020.58 1021.32 1022.13 1023.08 1023.90 1024.63
1021.94 1022.26 1021.88 1020.62 1019.42 1019.38 1019.02 1017.38 1015.76 1014.36 1014.36 1013.98 1013.54 1012.84 1012.39 1011.85 1011.42 1010.84 1010.28 1009.66 1008.99 1008.57 1008.09 1008.14 1008.49 1008.66 1009.23 1009.67 1010.06 1010.43 1011.00 1011.50 1012.35 1012.81 1013.39 1014.05 1014.73 1015.62 1016.32 1017.11 1018.05 1018.65 1019.49 1020.46 1021.00 1022.03 1022.60 1023.84 1024.93
1022.77 1022.67 1022.08 1021.43 1019.78 1019.34 1018.49 1017.12 1015.21 1013.61 1014.00 1013.62 1013.52 1013.24 1012.75 1012.28 1011.74 1011.16 1010.50 1009.65 1008.98 1008.28 1007.74 1007.49 1007.60 1007.73 1008.07 1008.67 1009.36 1009.64 1010.15 1010.92 1011.13 1011.87 1012.55 1013.19 1013.86 1014.76 1015.58 1016.42 1017.52 1018.13 1019.01 1020.13 1021.08 1021.69 1022.94 1023.68 1024.72
1022.81 1022.76 1022.12 1021.01 1019.92 1019.46 1018.13 1016.82 1014.28 1013.56 1013.44 1013.31 1013.65 1013.43 1013.10 1012.62 1011.94 1011.39 1010.70 1010.13 1009.40 1008.68 1007.95 1007.32 1006.98 1006.82 1007.15 1007.40 1008.01 1008.22 1008.21 1009.72 1010.52 1011.19 1011.71 1012.36 1013.03 1013.84 1014.51 1015.50 1016.48 1017.58 1018.33 1019.12 1020.40 1021.36 1022.45 1024.08 1024.74
1022.45 1022.31 1021.68 1020.44 1019.76 1019.92 1018.21 1015.96 1014.06 1013.85 1013.41 1013.29 1013.30 1013.24 1012.91 1012.41 1011.85 1011.20 1010.66 1010.29 1009.90 1009.34 1008.70 1007.98 1007.03 1006.32 1006.23 1006.45 1006.83 1007.38 1006.80 1008.37 1009.18 1010.29 1011.09 1011.64 1012.38 1013.13 1013.45 1014.47 1015.77 1016.68 1017.88 1019.18 1019.81 1020.61 1022.05 1023.74 1024.02
1022.17 1022.15 1021.72 1021.78 1020.18 1019.10 1018.44 1016.07 1014.35 1013.41 1013.36 1013.30 1013.08 1012.76 1012.83 1012.52 1011.72 1011.24 1010.74 1010.34 1010.01 1009.45 1008.96 1008.33 1007.75 1007.18 1005.66 1005.68 1005.94 1006.56 1007.38 1008.30 1008.90 1009.52 1010.18 1010.79 1011.47 1012.38 1012.81 1013.57 1014.73 1015.90 1016.90 1018.24 1019.31 1019.67 1020.36 1021.89 1023.45
1022.12 1021.85 1021.93 1021.72 1021.68 1020.78 1019.44 1018.01 1014.86 1013.66 1013.40 1013.24 1013.28 1012.69 1012.24 1012.03 1011.60 1011.48 1010.88 1010.22 1009.82 1009.38 1008.89 1008.44 1007.77 1007.11 1005.97 1004.95 1005.23 1005.61 1006.19 1007.33 1007.87 1008.53 1009.34 1009.91 1010.22 1011.39 1011.79 1012.68 1014.16 1015.12 1015.89 1017.44 1018.66 1019.47 1019.53 1020.66 1022.42
1022.16 1021.86 1021.69 1021.59 1021.69 1021.34 1019.75 1019.28 1014.62 1013.61 1013.31 1013.05 1012.93 1012.44 1012.06 1011.75 1011.57 1011.09 1010.74 1010.23 1009.56 1009.06 1008.67 1008.18 1007.59 1006.85 1005.89 1004.68 1004.40 1004.87 1005.51 1006.21 1007.19 1008.32 1009.25 1010.03 1010.37 1010.88 1011.52 1012.71 1014.13 1014.83 1015.66 1016.86 1017.97 1019.08 1019.29 1020.24 1021.22
1022.60 1022.03 1021.73 1021.97 1022.05 1021.65 1019.54 1018.80 1014.85 1013.67 1012.97 1012.90 1012.69 1012.23 1011.81 1011.55 1011.13 1010.80 1010.34 1009.92 1009.25 1008.74 1008.27 1007.82 1007.30 1006.40 1005.73 1004.41 1003.88 1004.22 1004.86 1005.64 1006.98 1008.05 1009.10 1009.95 1010.62 1010.76 1011.39 1012.23 1013.61 1014.50 1015.43 1016.07 1017.22 1018.16 1018.94 1019.96 1021.09
1023.33 1023.62 1023.99 1023.50 1022.97 1021.34 1019.29 1018.19 1014.56 1013.24 1012.92 1012.60 1012.28 1011.86 1011.76 1011.33 1010.96 1010.44 1010.12 1009.60 1008.95 1008.37 1007.78 1007.37 1006.89 1006.05 1005.35 1004.58 1003.63 1003.76 1004.22 1005.15 1006.17 1007.40 1008.37 1009.53 1010.23 1010.93 1011.63 1012.00 1012.59 1013.93 1014.29 1015.78 1016.92 1017.97 1019.11 1020.20 1020.85
1024.54 1025.06 1025.99 1025.87 1024.01 1021.40 1018.82 1016.93 1013.62 1012.55 1012.48 1012.50 1012.38 1011.73 1011.35 1010.93 1010.66 1010.27 1009.83 1009.34 1008.70 1007.96 1007.25 1006.82 1006.49 1005.79 1005.17 1004.46 1003.63 1003.35 1003.69 1004.57 1005.55 1006.79 1007.69 1008.70 1009.47 1010.10 1011.12 1011.50 1012.85 1013.29 1014.53 1015.48 1016.60 1018.16 1019.22 1020.44 1021.09
1024.85 1025.29 1025.29 1025.14 1024.05 1022.40 1018.39 1015.48 1013.28 1012.53 1012.43 1012.03 1012.26 1012.25 1011.54 1011.00 1010.65 1010.01 1009.38 1008.93 1008.24 1007.42 1006.74 1006.19 1005.78 1005.30 1004.86 1004.44 1003.81 1002.90 1003.53 1004.33 1005.19 1006.35 1007.34 1008.39 1009.36 1010.24 1010.94 1011.53 1012.31 1013.43 1014.64 1015.30 1016.66 1017.68 1019.19 1020.57 1021.76
1024.94 1025.51 1025.71 1025.66 1024.70 1022.36 1018.27 1015.64 1013.36 1012.80 1012.76 1012.80 1012.74 1012.25 1011.71 1011.56 1010.76 1010.13 1009.32 1008.52 1007.73 1006.75 1006.01 1005.50 1005.14 1004.66 1004.29 1004.13 1003.74 1002.77 1003.43 1004.36 1005.39 1006.42 1007.78 1008.93 1010.03 1011.15 1011.96 1012.71 1012.52 1013.81 1015.17 1016.17 1017.24 1018.45 1020.02 1020.87 1022.58
1025.66 1025.79 1025.98 1025.91 1025.10 1023.34 1019.47 1015.13 1013.14 1013.29 1013.43 1012.96 1012.84 1012.45 1012.32 1011.63 1010.94 1010.01 1009.03 1008.13 1007.14 1006.10 1005.37 1004.75 1004.34 1004.13 1003.90 1003.69 1003.41 1002.96 1003.87 1005.12 1006.39 1007.27 1008.39 1009.42 1010.51 1011.50 1012.45 1013.44 1014.14 1014.45 1015.71 1017.06 1017.52 1019.39 1020.87 1021.57 1023.12
1025.95 1026.08 1026.22 1026.28 1025.32 1023.81 1021.52 1015.81 1013.21 1013.17 1013.38 1013.49 1013.22 1013.15 1012.68 1012.06 1011.17 1010.05 1008.91 1007.71 1006.54 1005.66 1004.97 1004.42 1004.03 1003.69 1003.45 1003.45 1003.46 1003.64 1004.58 1005.66 1007.07 1008.09 1009.11 1010.06 1011.15 1012.04 1012.74 1013.89 1015.61 1016.21 1016.45 1017.78 1018.21 1020.30 1021.35 1022.13 1023.75
Wind_Speed
10 8 2 3 3 3 2 5 2 6 6 2 2 3 5 1 5 3 3 11 9 18 18 20 21 20 20 19 18 17 16 17 16 16 16 15 16 15 14 14 13 15 13 13 14 15 15 12 11
5 4 1 2 3 2 3 4 7 5 5 5 2 2 3 4 2 2 6 8 14 17 17 18 22 21 20 18 17 18 17 16 18 17 16 16 15 14 15 13 14 14 14 14 15 15 13 11 9
1 3 3 1 2 5 5 4 4 4 8 2 4 3 4 2 1 4 4 13 16 16 16 14 20 21 21 18 18 17 17 18 18 17 19 15 16 15 14 13 14 14 14 15 14 13 11 8 9
5 4 4 2 6 5 5 5 3 6 3 2 0 7 5 3 1 4 9 17 18 15 15 15 19 22 21 20 20 18 17 17 18 18 16 18 17 16 14 14 13 14 13 14 14 12 8 10 11
3 2 1 4 4 5 5 4 3 5 4 4 1 5 4 2 3 5 14 16 19 16 14 15 19 21 21 21 20 20 21 19 17 15 16 15 16 16 14 13 16 15 15 15 12 12 9 10 13
2 2 4 7 11 8 4 5 1 3 3 5 3 3 5 1 4 5 12 15 17 16 14 15 16 18 20 21 20 19 19 19 19 16 14 13 17 15 15 15 14 14 16 14 12 12 10 12 14
5 3 4 4 3 6 2 1 1 5 3 4 4 4 4 5 2 4 8 11 15 17 13 13 15 15 18 18 16 19 18 17 16 18 17 15 13 12 15 14 13 14 14 14 14 12 12 13 13
3 3 2 3 3 6 8 10 4 5 3 6 0 2 5 5 1 5 3 8 11 13 14 14 13 13 13 13 13 13 16 18 13 14 13 14 14 13 13 11 11 13 14 14 12 13 14 14 14
3 1 4 4 4 2 7 9 5 5 3 5 4 1 5 5 3 6 6 8 12 11 13 14 14 13 13 12 12 13 8 12 12 11 13 12 8 9 10 8 10 13 16 15 14 15 15 16 15
4 2 4 3 4 4 9 3 8 7 8 6 13 1 6 2 3 6 8 10 13 15 14 14 14 14 12 10 11 12 11 9 9 8 10 7 8 7 6 8 8 11 15 15 16 17 15 10 7
3 3 3 2 3 5 5 6 3 4 5 4 8 17 11 6 5 10 11 11 11 10 10 14 12 15 14 11 9 7 6 7 6 7 9 7 6 4 6 5 5 7 10 9 11 9 6 8 7
0 1 1 6 6 6 6 5 5 7 7 9 12 14 11 13 11 12 14 13 9 11 12 13 13 12 15 10 9 9 8 7 7 8 9 8 5 6 6 6 6 6 5 9 8 6 8 10 10
3 5 7 7 7 6 7 4 6 12 13 9 8 9 11 12 11 11 12 10 11 14 13 13 12 12 12 14 10 10 10 9 10 10 10 9 8 7 6 6 5 6 7 7 8 9 8 10 10
3 3 8 4 7 5 5 10 2 5 4 11 14 17 13 12 13 10 9 11 11 12 14 11 13 13 13 11 14 10 10 11 10 10 10 12 9 8 8 8 6 6 7 7 8 9 9 8 9
3 5 7 0 4 5 7 3 3 8 7 13 16 17 13 12 14 14 11 11 11 12 14 15 13 13 14 15 10 10 9 11 11 10 13 13 12 11 10 7 6 7 8 11 10 9 9 10 9
5 5 6 7 8 4 5 7 8 16 14 22 20 17 17 12 13 14 14 13 11 12 15 17 14 15 16 16 12 10 10 10 10 11 10 14 12 13 11 8 7 8 8 8 8 9 9 8 8
7 3 4 10 2 3 3 16 17 23 18 17 16 18 14 13 12 13 14 13 12 12 15 16 18 18 18 17 13 14 12 12 10 10 10 14 14 14 11 9 8 10 8 8 9 8 9 10 8
5 4 4 9 6 5 15 18 23 23 14 15 12 11 8 8 7 12 13 11 12 12 12 15 16 19 19 14 13 12 11 10 10 11 12 16 13 16 13 10 11 11 10 9 8 11 9 10 10
3 4 10 13 11 6 12 20 26 19 14 6 5 5 7 8 8 10 11 10 10 11 11 13 16 18 14 13 13 12 13 12 11 10 14 16 15 17 15 11 13 11 11 13 13 12 15 10 11
2 7 8 10 4 7 14 25 21 11 5 2 2 5 6 8 9 13 14 11 10 10 11 12 12 16 16 13 10 10 14 13 12 10 12 15 16 16 15 15 13 14 11 12 15 15 11 5 8
3 4 5 6 16 2 6 10 6 4 1 3 1 3 5 9 11 12 14 14 9 10 10 12 13 14 17 17 12 9 6 3 5 10 10 11 15 17 17 17 15 14 13 12 14 15 13 11 7
6 3 7 12 9 5 6 8 7 3 6 2 5 7 6 9 10 10 12 14 12 12 9 11 13 14 13 20 13 12 11 10 9 10 9 11 15 15 13 15 14 15 12 14 13 11 10 12 11
9 8 14 9 5 5 1 4 11 3 1 2 7 11 11 10 11 15 11 12 15 11 10 10 13 14 14 16 18 13 16 11 8 6 9 7 7 11 12 12 12 12 10 12 14 12 12 10 9
8 7 9 1 0 3 4 3 10 4 2 2 6 10 10 12 14 15 11 11 13 11 10 9 12 14 13 14 18 16 18 10 9 10 10 8 7 10 14 16 13 13 11 14 13 11 13 10 9
10 7 6 8 6 6 2 5 13 3 4 4 9 14 9 15 14 15 11 16 16 15 14 10 11 14 13 11 17 15 18 15 15 13 11 12 9 6 10 13 15 12 16 14 13 12 11 11 10
4 3 5 5 4 11 15 8 8 5 4 5 15 15 22 19 16 12 19 16 16 17 14 12 11 14 12 12 13 13 14 10 11 13 11 10 10 11 11 12 11 15 14 14 14 10 9 10 9
5 2 5 6 2 4 5 8 9 4 7 18 18 22 23 18 18 20 19 17 16 15 15 13 11 13 12 12 11 13 10 12 11 12 11 8 8 8 11 15 15 14 15 16 15 12 13 11 9
4 3 5 4 5 7 7 8 10 5 14 20 22 23 17 20 19 18 18 17 16 15 15 13 10 13 11 10 9 9 11 9 9 11 10 10 10 9 11 8 16 15 14 14 14 12 12 14 8
5 4 2 2 2 4 8 8 3 6 18 22 23 17 20 20 20 19 18 17 17 15 13 12 12 10 9 9 8 9 13 13 11 12 13 13 13 14 13 14 12 14 17 15 16 13 13 16 14
1 4 4 4 5 4 5 11 4 13 20 27 26 18 20 20 19 19 18 17 15 13 11 10 9 9 8 5 7 12 14 15 14 13 15 15 16 14 17 14 12 13 15 13 17 14 13 18 15
Wind_Direction
320 308 243 47 63 59 217 245 259 281 305 295 142 167 213 174 170 207 352 186 157 154 155 148 151 155 151 150 149 155 160 157 162 155 152 149 142 137 135 136 142 128 133 127 127 130 121 116 113
311 286 54 79 107 197 254 237 236 251 278 305 335 290 247 243 207 106 120 200 166 157 155 157 151 159 153 156 156 151 167 161 160 155 156 155 159 152 149 151 134 133 129 129 132 126 124 126 128
230 275 58 86 166 202 210 220 259 277 307 267 320 210 294 231 209 188 190 159 160 163 159 160 153 156 155 162 157 160 163 167 161 157 158 158 152 151 156 149 139 134 144 137 133 130 131 132 122
23 11 54 260 228 248 212 249 203 317 316 62 10 303 292 306 202 184 153 156 158 163 163 160 162 157 156 161 167 173 157 163 167 163 160 160 160 157 159 143 143 146 142 137 138 131 124 105 105
56 350 88 278 259 260 239 238 166 283 258 272 229 258 251 279 359 137 150 157 164 164 165 168 163 166 162 162 176 164 169 172 165 163 159 176 168 156 139 154 158 158 149 139 136 130 113 95 104
74 117 179 226 237 250 277 275 235 224 250 298 273 288 257 357 132 182 157 162 168 168 164 170 165 168 167 168 177 174 170 171 169 166 164 156 149 151 153 165 169 162 144 135 132 122 116 114 112
143 137 224 266 257 269 254 343 339 316 314 336 323 295 309 43 325 166 166 168 168 173 167 173 172 172 168 171 183 175 169 178 170 167 168 155 147 140 178 177 172 150 137 133 128 124 120 119 115
94 93 278 246 219 269 13 343 359 53 302 311 88 332 323 330 120 120 172 180 176 179 175 175 176 173 176 171 178 175 181 179 180 174 156 153 145 178 168 164 143 140 125 121 129 129 125 118 106
137 135 232 237 199 288 8 358 340 309 250 343 321 283 327 355 141 149 190 206 193 190 185 180 177 177 174 176 176 171 189 177 176 165 155 153 170 175 160 139 162 138 126 128 129 126 116 112 94
61 162 245 25 12 346 325 338 330 336 344 307 300 27 6 49 191 204 207 211 216 201 194 187 181 179 174 176 176 179 179 184 188 167 168 163 180 160 162 152 151 135 130 132 133 130 123 115 112
351 199 325 240 316 350 285 296 312 283 277 254 306 307 325 315 236 235 234 229 221 224 210 199 186 184 180 181 176 180 181 173 177 169 163 157 168 160 153 152 140 134 130 133 126 127 111 104 104
98 69 353 306 337 330 301 312 291 244 266 293 314 312 305 310 289 240 232 222 221 218 214 208 195 194 184 183 183 178 179 179 176 178 162 156 169 176 163 155 143 131 134 130 127 120 111 101 97
47 330 318 312 304 277 284 290 264 278 284 304 306 319 314 312 307 294 254 236 207 211 213 210 210 197 196 190 182 181 184 180 182 175 175 166 169 176 168 163 149 139 139 139 128 122 115 106 100
287 288 293 317 302 307 351 295 222 263 307 314 310 306 297 288 288 294 286 239 218 208 207 204 204 209 198 197 184 185 185 182 178 182 178 176 172 171 170 167 161 137 144 135 133 131 123 110 106
326 360 336 286 333 304 319 358 235 246 298 297 298 298 291 280 288 284 281 276 243 215 203 200 200 201 209 198 194 187 187 187 180 181 180 178 174 171 166 166 163 141 138 131 125 119 115 110 101
41 53 357 300 341 311 38 280 270 291 290 295 305 296 293 278 276 287 286 281 273 233 206 202 199 198 209 203 197 194 185 184 189 181 182 177 174 169 167 164 165 143 139 137 132 131 118 107 105
24 294 298 312 354 271 48 294 284 287 295 297 296 302 302 302 295 296 294 287 279 252 222 208 200 201 203 204 201 195 191 190 191 183 179 181 172 170 167 166 154 146 140 142 140 133 131 121 114
305 328 259 274 281 340 293 282 290 291 298 295 305 313 330 333 317 323 331 322 298 285 235 219 206 205 202 198 204 200 190 188 186 186 188 181 178 173 169 166 162 154 146 145 144 132 124 125 122
233 238 259 269 278 295 289 296 286 303 301 296 329 2 341 323 309 315 327 334 346 344 324 232 222 212 206 197 195 198 188 188 188 190 189 182 182 179 172 166 157 160 161 157 151 136 132 127 129
242 274 281 283 252 325 306 289 287 305 285 204 116 329 312 313 325 340 337 331 334 328 328 333 268 224 214 205 194 193 193 198 197 190 186 185 183 184 175 167 171 166 152 156 153 148 139 127 170
272 240 290 289 321 312 324 283 332 324 347 174 302 280 302 303 314 326 330 323 317 317 322 319 313 308 231 217 202 198 174 102 164 186 184 185 182 187 178 173 167 165 154 161 168 162 156 153 183
308 185 289 300 333 296 69 287 295 283 294 82 302 322 318 317 327 301 311 315 311 310 301 306 305 297 287 227 210 181 178 181 194 186 184 181 176 183 177 165 164 164 155 165 171 177 154 154 167
257 320 293 302 278 305 225 253 272 321 154 304 313 326 316 322 316 313 302 302 302 298 294 296 298 297 290 248 218 192 193 190 178 159 157 162 162 168 146 149 166 158 156 157 163 164 152 158 157
296 314 317 102 29 275 233 179 277 272 228 308 283 294 296 318 318 312 298 294 295 294 293 290 297 293 288 273 230 200 199 180 149 158 163 162 161 153 156 151 160 156 150 152 156 156 148 147 151
12 5 345 356 5 235 151 283 252 247 217 241 312 331 314 315 315 304 304 310 305 300 297 291 296 294 299 313 235 203 202 167 169 174 169 161 157 161 175 155 156 158 152 151 149 147 140 148 147
345 65 129 285 295 292 280 234 257 193 225 276 328 338 330 321 315 309 311 305 301 296 289 284 285 288 294 289 288 198 195 172 171 177 167 174 179 172 161 149 156 141 138 137 135 132 128 128 119
286 4 195 260 248 279 267 282 288 212 316 340 337 324 320 320 323 314 310 304 298 293 288 282 276 278 282 292 305 189 168 171 165 169 164 160 147 145 158 139 136 133 137 133 134 132 125 120 110
150 306 12 358 310 294 266 280 270 311 337 322 330 324 323 322 315 312 308 305 297 289 292 285 265 264 271 277 282 199 157 149 140 130 121 120 117 116 123 122 124 125 120 121 120 111 114 110 96
344 351 346 266 234 272 305 291 236 1 328 333 330 327 330 326 324 318 312 305 296 297 287 275 273 266 264 266 282 140 118 111 106 111 113 113 113 114 108 109 103 112 109 107 107 104 108 99 97
265 224 152 127 301 268 268 270 296 336 340 336 327 337 332 328 324 320 318 311 307 304 299 291 281 269 258 241 133 120 113 114 113 112 112 112 106 104 109 104 97 100 107 113 108 106 108 109 113